Location: Sevilla
(37.3933°N, 5.9839°W)
Time: 04:41:25
(UTC+02:00)

Transit 2A Rocket - Pass Details

Date: 28 June 2024
Orbit: 582 x 910 km, 66.7° (Epoch: 15 July)

Event Time Altitude Azimuth Distance (km) Brightness Sun altitude
Rises 20:17:40 0° 191° (SSW) 3,029 8.0 15.7°
Reaches altitude 10° 20:19:56 10° 186° (S) 2,166 7.3 15.3°
Maximum altitude 20:24:42 50° 112° (ESE) 956 5.3 14.4°
Drops below altitude 10° 20:29:59 10° 38° (NE) 2,394 7.4 13.4°
Sets 20:32:36 0° 33° (NNE) 3,381 8.2 12.9°
